This demonstration page uses our WeatherBlox Daily Observations layout. Learn more.

Left ArrowRight Arrow

39.51506, -84.39828

Hourly Observations for May 13, 2018

Temp ( °F °C ) Dew Point ( °F °C ) Humidity (%) Winds ( mph kmh ) Pressure ( in mb ) Visibility ( mi km ) Precip ( " mm )
12:15 am 00:15 Partly Cloudy 66 18.9 59 15.1 79 79 NNE 6 9 30.03 1017 10 16 N/A
12:35 am 00:35 Partly Cloudy 67 19.4 59 15.2 77 77 NNE 6 9 30.03 1017 10 16 N/A
12:55 am 00:55 Partly Cloudy 67 19.4 58 14.4 73 73 ENE 9 15 30.03 1017 10 16 N/A
1:15 am 01:15 Clear 65 18.3 57 14 76 76 ENE 7 11 30.03 1017 10 16 N/A
1:35 am 01:35 Clear 64 17.5 57 13.9 80 80 NE 5 7 30.03 1017 10 16 N/A
1:55 am 01:55 Partly Cloudy 62 16.9 57 13.8 82 82 NE 5 7 30.03 1017 10 16 N/A
2:15 am 02:15 Clear 62 16.8 56 13.5 81 81 E 6 9 30.00 1016 7 11 N/A
2:35 am 02:35 Clear 62 16.9 55 12.8 77 77 ENE 7 11 30.00 1016 10 16 N/A
2:55 am 02:55 Clear 61 16.2 55 12.8 80 80 NE 3 6 30.00 1016 10 16 N/A
3:15 am 03:15 Clear 61 16 55 12.6 80 80 NE 3 6 30.00 1016 10 16 N/A
3:35 am 03:35 Clear 60 15.3 55 12.7 85 85 ENE 3 6 30.03 1017 10 16 N/A
3:55 am 03:55 Clear 60 15.6 55 12.8 84 84 N N/A 30.00 1016 10 16 N/A
4:15 am 04:15 Clear 59 14.8 55 12.7 87 87 N N/A 30.03 1017 10 16 N/A
4:35 am 04:35 Clear 58 14.3 55 12.8 91 91 N N/A 30.00 1016 10 16 N/A
4:55 am 04:55 Clear 58 14.4 56 13.2 93 93 N N/A 30.00 1016 10 16 N/A
5:15 am 05:15 Clear 58 14.4 55 13 91 91 N N/A 30.00 1016 10 16 N/A
5:35 am 05:35 Clear 57 13.8 55 12.9 94 94 N N/A 30.00 1016 10 16 N/A
5:55 am 05:55 Clear 56 13.4 55 12.5 94 94 N 3 6 30.00 1016 10 16 N/A
6:15 am 06:15 Partly Cloudy 57 13.7 55 12.8 94 94 N N/A 30.00 1016 10 16 N/A
6:35 am 06:35 Sunny 56 13.6 55 12.8 95 95 N N/A 30.03 1017 10 16 N/A
6:55 am 06:55 Sunny 56 13.5 55 12.7 95 95 N N/A 30.03 1017 10 16 N/A
7:15 am 07:15 Sunny 57 13.9 56 13.2 96 96 N N/A 30.03 1017 10 16 N/A
7:35 am 07:35 Sunny 59 15.1 57 14.1 94 94 N N/A 30.03 1017 10 16 N/A
7:55 am 07:55 Sunny 62 16.4 58 14.3 87 87 N N/A 30.00 1016 10 16 N/A
8:15 am 08:15 Sunny 64 18 59 15 83 83 SSW 5 7 30.00 1016 10 16 N/A
8:35 am 08:35 Sunny 69 20.6 63 17.1 80 80 SW 9 15 30.00 1016 10 16 N/A
8:55 am 08:55 Sunny 71 21.6 63 17.3 77 77 SSW 9 15 30.00 1016 10 16 N/A
9:15 am 09:15 Sunny 73 22.5 63 17.4 73 73 SW 9 15 30.00 1016 10 16 N/A
9:35 am 09:35 Sunny 75 23.8 64 17.9 70 70 SW 8 13 30.00 1016 10 16 N/A
9:55 am 09:55 Sunny 77 25 65 18.3 66 66 SSW 9 15 30.00 1016 10 16 N/A
10:15 am 10:15 Sunny 78 25.7 65 18.4 64 64 SSW 13 20 29.97 1015 10 16 N/A
10:35 am 10:35 Sunny 80 26.4 66 18.7 63 63 SW 12 19 29.97 1015 10 16 N/A
10:55 am 10:55 Sunny 81 27.3 65 18.1 57 57 SW 18 30 29.97 1015 10 16 N/A
11:15 am 11:15 Sunny 82 27.8 66 18.7 58 58 WSW 15 24 29.97 1015 10 16 N/A
11:35 am 11:35 Sunny 82 28 65 18.4 56 56 WSW 14 22 29.94 1014 10 16 N/A
11:55 am 11:55 Sunny 83 28.6 66 18.9 56 56 SW 16 26 29.94 1014 10 16 N/A
12:15 pm 12:15 Sunny 84 28.7 66 18.8 55 55 WSW 18 30 29.94 1014 10 16 N/A
12:35 pm 12:35 Partly Cloudy 85 29.4 67 19.6 56 56 SSW 15 24 29.94 1014 10 16 N/A
12:55 pm 12:55 Mostly Cloudy 84 29.1 66 18.8 54 54 WSW 13 20 29.94 1014 10 16 N/A
1:15 pm 13:15 Partly Cloudy 85 29.5 67 19.4 55 55 W 15 24 29.94 1014 10 16 N/A
1:35 pm 13:35 Mostly Cloudy 85 29.5 66 19.1 54 54 WSW 15 24 29.94 1014 10 16 N/A
1:55 pm 13:55 Partly Cloudy 86 29.9 67 19.5 54 54 WSW 14 22 29.94 1014 10 16 N/A
2:15 pm 14:15 Mostly Cloudy 85 29.7 67 19.3 54 54 WSW 16 26 29.91 1013 10 16 N/A
2:35 pm 14:35 Mostly Cloudy 85 29.4 66 18.9 53 53 W 14 22 29.91 1013 10 16 N/A
2:55 pm 14:55 Partly Cloudy 87 30.4 66 19 51 51 WSW 16 26 29.91 1013 10 16 N/A
3:15 pm 15:15 Partly Cloudy 87 30.5 66 19.1 51 51 SW 16 26 29.91 1013 10 16 N/A
3:35 pm 15:35 Mostly Cloudy 87 30.5 65 18.6 49 49 WSW 17 28 29.91 1013 10 16 N/A
3:55 pm 15:55 Mostly Cloudy 87 30.6 66 18.9 50 50 SW 13 20 29.91 1013 10 16 N/A
4:15 pm 16:15 Partly Cloudy 87 30.8 66 19.1 50 50 WSW 15 24 29.91 1013 10 16 N/A
4:35 pm 16:35 Partly Cloudy 86 29.9 66 19.1 52 52 SW 12 19 29.88 1012 10 16 N/A
4:55 pm 16:55 Partly Cloudy 87 30.4 65 18.5 49 49 WSW 14 22 29.88 1012 10 16 N/A
5:15 pm 17:15 Mostly Cloudy 86 29.8 65 18.5 51 51 W 10 17 29.88 1012 10 16 N/A
5:35 pm 17:35 Partly Cloudy 87 30.5 65 18.3 48 48 W 14 22 29.91 1013 10 16 N/A
5:55 pm 17:55 Partly Cloudy 86 30.1 65 18.4 50 50 W 15 24 29.91 1013 10 16 N/A
6:15 pm 18:15 Partly Cloudy 85 29.7 65 18.2 50 50 WSW 13 20 29.91 1013 10 16 N/A
6:35 pm 18:35 Mostly Cloudy 84 29 65 18.6 53 53 W 8 13 29.91 1013 10 16 N/A
6:55 pm 18:55 Partly Cloudy 83 28.4 67 19.3 58 58 WSW 5 7 29.88 1012 10 16 N/A
7:15 pm 19:15 Cloudy 83 28.3 66 19 57 57 W 8 13 29.88 1012 10 16 N/A
7:35 pm 19:35 Partly Cloudy with Nearby Thunderstorms 81 27.3 68 19.8 64 64 WSW 3 6 29.88 1012 10 16 N/A
7:55 pm 19:55 Mostly Cloudy 78 25.5 71 21.6 79 79 WSW 5 7 29.91 1013 10 16 N/A
8:15 pm 20:15 Cloudy 77 24.9 69 20.4 76 76 NW 6 9 29.94 1014 7 11 0.02 0.51
8:35 pm 20:35 Partly Cloudy with Nearby Thunderstorms 77 25.1 68 20.2 74 74 W 8 13 29.94 1014 10 16 0.02 0.51
8:55 pm 20:55 Cloudy with Haze 75 24.1 69 20.7 81 81 W 9 15 29.97 1015 7 11 0.02 0.51
9:15 pm 21:15 Partly Cloudy 75 23.7 66 18.7 74 74 WSW 14 22 29.97 1015 10 16 N/A
9:35 pm 21:35 Partly Cloudy 73 22.6 64 17.7 74 74 SSW 7 11 29.97 1015 10 16 N/A
9:55 pm 21:55 Partly Cloudy 72 22.2 65 18.4 79 79 S 3 6 29.97 1015 10 16 N/A
10:15 pm 22:15 Cloudy with Strong Thunderstorms 72 22.2 67 19.3 84 84 W 10 17 29.97 1015 7 11 0.04 1.02
10:35 pm 22:35 Clear 70 21.3 68 19.9 92 92 N N/A 29.97 1015 10 16 0.05 1.27
10:55 pm 22:55 Clear 70 21.1 69 20.3 95 95 N N/A 29.94 1014 10 16 0.05 1.27
11:15 pm 23:15 Clear 69 20.7 68 20 96 96 NW 3 6 29.94 1014 10 16 N/A
11:35 pm 23:35 Clear with Mist and Fog 70 20.9 69 20.5 98 98 N N/A 29.94 1014 5 8 N/A
11:55 pm 23:55 Clear with Mist and Fog 68 20 67 19.5 97 97 WSW 3 6 29.91 1013 7 11 N/A

Powered by AerisWeather